GFSNIL_prec_snow_180.txt.gz
Snowfall_Accumulation
0.0 0.0 0.0 0.0 0.0 0.0 0.0 0.0 0.0 0.0 0.0 0.0 0.0 0.0 0.0 0.0 0.0 0.0 0.0 0.0 0.0 2.1
0.0 0.0 0.0 0.0 0.0 0.0 0.0 0.0 0.0 0.0 0.0 0.0 0.0 0.0 0.0 0.0 0.0 0.0 0.0 0.0 0.0 0.0
0.0 0.0 0.0 0.0 0.0 0.0 0.0 0.0 0.0 0.0 0.0 0.0 0.0 0.0 0.0 0.0 0.0 0.0 0.0 0.0 0.0 0.1
0.0 0.0 0.0 0.0 0.0 0.0 0.0 0.0 0.0 0.1 0.1 0.0 0.0 0.0 0.0 0.0 0.0 0.0 0.0 0.0 0.0 0.1
0.0 0.0 0.6 0.0 0.0 0.0 0.1 0.0 0.1 0.1 0.1 0.2 0.6 0.3 0.4 0.2 0.1 0.2 0.1 0.2 0.1 0.1
0.0 2.4 0.7 1.1 1.4 0.9 1.2 0.3 0.6 0.7 1.2 1.1 0.5 1.1 1.5 1.1 0.1 0.6 0.9 0.8 0.7 0.2
1.0 1.4 3.1 4.3 1.9 2.0 2.8 1.3 0.6 0.8 1.3 0.9 1.6 3.8 2.1 2.4 2.0 1.6 2.0 2.2 2.3 1.8
0.0 0.7 1.5 0.8 1.7 2.7 2.9 1.2 1.2 1.8 2.0 2.7 2.7 3.4 4.6 5.1 5.4 3.4 5.1 5.1 3.5 4.2
0.1 0.0 0.3 0.2 0.3 0.8 2.7 1.2 1.3 0.9 0.8 1.5 2.6 3.5 4.3 5.8 6.2 5.8 3.0 4.1 5.0 4.1
0.1 0.0 0.0 0.0 0.0 0.1 0.1 0.5 2.0 2.2 1.7 0.7 0.9 2.0 2.1 2.7 4.7 6.2 5.9 5.1 4.1 4.3
0.0 0.0 0.0 0.0 0.0 0.0 0.0 0.1 0.0 0.2 0.7 0.0 0.8 0.7 0.4 0.6 0.6 1.8 4.3 4.7 4.5 4.1
0.0 0.0 0.0 0.0 0.0 0.0 0.0 0.0 0.0 0.0 0.0 0.0 0.0 0.2 0.2 0.1 0.2 0.8 0.6 1.3 3.0 4.0
0.0 0.0 0.0 0.0 0.0 0.0 0.0 0.0 0.0 0.1 0.0 0.0 0.0 0.0 0.4 0.2 1.2 2.1 0.7 0.2 1.3 4.3
0.0 0.0 0.0 0.0 0.0 0.0 0.0 0.0 0.2 0.2 0.0 0.1 0.1 0.1 0.7 0.6 1.6 2.8 3.7 2.3 2.5 2.1

GFSNIL_prec_snow_183.txt.gz
Snowfall_Accumulation
0.0 0.0 0.0 0.0 0.0 0.0 0.0 0.0 0.0 0.0 0.0 0.0 0.0 0.0 0.0 0.0 0.0 0.0 0.0 0.0 0.0 2.1
0.0 0.0 0.0 0.0 0.0 0.0 0.0 0.0 0.0 0.0 0.0 0.0 0.0 0.0 0.0 0.0 0.0 0.0 0.0 0.0 0.0 0.0
0.0 0.0 0.0 0.0 0.0 0.0 0.0 0.0 0.0 0.0 0.0 0.0 0.0 0.0 0.0 0.0 0.0 0.0 0.0 0.0 0.0 0.1
0.0 0.0 0.0 0.0 0.0 0.0 0.0 0.0 0.0 0.1 0.1 0.0 0.0 0.0 0.0 0.0 0.0 0.0 0.0 0.0 0.0 0.1
0.0 0.0 0.6 0.0 0.0 0.0 0.1 0.0 0.1 0.1 0.1 0.2 0.6 0.3 0.4 0.2 0.1 0.2 0.1 0.2 0.1 0.1
0.0 2.4 0.7 1.1 1.4 0.9 1.2 0.3 0.6 0.7 1.2 1.1 0.5 1.1 1.5 1.1 0.1 0.6 0.9 0.8 0.7 0.2
1.0 1.4 3.1 4.3 1.9 2.0 2.8 1.3 0.6 0.8 1.3 0.9 1.6 3.8 2.1 2.4 2.0 1.6 2.0 2.2 2.3 1.8
0.0 0.7 1.5 0.8 1.7 2.7 2.9 1.2 1.2 1.8 2.0 2.7 2.7 3.4 4.6 5.1 5.4 3.4 5.1 5.1 3.5 4.2
0.1 0.0 0.3 0.2 0.3 0.8 2.7 1.2 1.3 0.9 0.8 1.5 2.6 3.5 4.3 5.8 6.2 5.8 3.0 4.1 5.0 4.1
0.1 0.0 0.0 0.0 0.0 0.1 0.1 0.5 2.0 2.2 1.7 0.7 0.9 2.0 2.1 2.7 4.7 6.2 5.9 5.1 4.1 4.3
0.0 0.1 0.0 0.0 0.0 0.0 0.0 0.1 0.0 0.2 0.7 0.0 0.8 0.7 0.4 0.6 0.6 1.8 4.3 4.7 4.5 4.1
0.3 0.0 0.0 0.0 0.0 0.0 0.0 0.0 0.0 0.0 0.0 0.0 0.0 0.2 0.2 0.1 0.2 0.8 0.6 1.3 3.0 4.0
0.1 0.0 0.0 0.0 0.0 0.0 0.0 0.0 0.0 0.1 0.0 0.0 0.0 0.0 0.4 0.2 1.2 2.1 0.7 0.2 1.3 4.3
0.0 0.0 0.0 0.0 0.0 0.0 0.0 0.0 0.2 0.2 0.0 0.1 0.1 0.1 0.7 0.6 1.6 2.8 3.7 2.3 2.5 2.1

GFSNIL_prec_snow_186.txt.gz
Snowfall_Accumulation
0.0 0.0 0.0 0.0 0.0 0.0 0.0 0.0 0.0 0.0 0.0 0.0 0.0 0.0 0.0 0.0 0.0 0.0 0.0 0.0 0.0 2.1
0.0 0.0 0.0 0.0 0.0 0.0 0.0 0.0 0.0 0.0 0.0 0.0 0.0 0.0 0.0 0.0 0.0 0.0 0.0 0.0 0.0 0.0
0.0 0.0 0.0 0.0 0.0 0.0 0.0 0.0 0.0 0.0 0.0 0.0 0.0 0.0 0.0 0.0 0.0 0.0 0.0 0.0 0.0 0.1
0.0 0.0 0.0 0.0 0.0 0.0 0.0 0.0 0.0 0.1 0.1 0.0 0.0 0.0 0.0 0.0 0.0 0.0 0.0 0.0 0.0 0.1
0.0 0.0 0.6 0.0 0.0 0.0 0.1 0.0 0.1 0.1 0.1 0.2 0.6 0.3 0.4 0.2 0.1 0.2 0.1 0.2 0.1 0.1
0.0 2.4 0.7 1.1 1.4 0.9 1.2 0.3 0.6 0.7 1.2 1.1 0.5 1.1 1.5 1.1 0.1 0.6 0.9 0.8 0.7 0.2
1.0 1.4 3.1 4.3 1.9 2.0 2.8 1.3 0.6 0.8 1.3 0.9 1.6 3.8 2.1 2.4 2.0 1.6 2.0 2.2 2.3 1.8
0.0 0.7 1.5 0.8 1.7 2.7 2.9 1.2 1.2 1.8 2.0 2.7 2.7 3.4 4.6 5.1 5.4 3.4 5.1 5.1 3.5 4.2
0.1 0.0 0.3 0.2 0.3 0.8 2.7 1.2 1.3 0.9 0.8 1.5 2.6 3.5 4.3 5.8 6.2 5.8 3.0 4.1 5.0 4.1
0.1 0.0 0.0 0.0 0.0 0.1 0.1 0.5 2.0 2.2 1.7 0.7 0.9 2.0 2.1 2.7 4.7 6.2 5.9 5.1 4.1 4.3
0.0 0.1 0.0 0.8 0.3 0.0 0.0 0.1 0.0 0.2 0.7 0.0 0.8 0.7 0.4 0.6 0.6 1.8 4.3 4.7 4.5 4.1
0.3 0.0 1.8 0.7 0.1 0.0 0.0 0.0 0.0 0.0 0.0 0.0 0.0 0.2 0.2 0.1 0.2 0.8 0.6 1.3 3.0 4.0
3.5 2.7 1.3 0.3 0.1 0.0 0.0 0.0 0.0 0.1 0.0 0.0 0.0 0.0 0.4 0.2 1.2 2.1 0.7 0.2 1.3 4.3
2.2 1.0 0.3 0.0 0.0 0.0 0.0 0.0 0.2 0.2 0.0 0.1 0.1 0.1 0.7 0.6 1.6 2.8 3.7 2.3 2.5 2.1

GFSNIL_prec_snow_189.txt.gz
Snowfall_Accumulation
0.0 0.0 0.0 0.0 0.0 0.0 0.0 0.0 0.0 0.0 0.0 0.0 0.0 0.0 0.0 0.0 0.0 0.0 0.0 0.0 0.0 2.1
0.0 0.0 0.0 0.0 0.0 0.0 0.0 0.0 0.0 0.0 0.0 0.0 0.0 0.0 0.0 0.0 0.0 0.0 0.0 0.0 0.0 0.0
0.0 0.0 0.0 0.0 0.0 0.0 0.0 0.0 0.0 0.0 0.0 0.0 0.0 0.0 0.0 0.0 0.0 0.0 0.0 0.0 0.0 0.1
0.0 0.0 0.0 0.0 0.0 0.0 0.0 0.0 0.0 0.1 0.1 0.0 0.0 0.0 0.0 0.0 0.0 0.0 0.0 0.0 0.0 0.1
0.0 0.0 0.6 0.0 0.0 0.0 0.1 0.0 0.1 0.1 0.1 0.2 0.6 0.3 0.4 0.2 0.1 0.2 0.1 0.2 0.1 0.1
0.0 2.4 0.7 1.1 1.4 0.9 1.2 0.3 0.6 0.7 1.2 1.1 0.5 1.1 1.5 1.1 0.1 0.6 0.9 0.8 0.7 0.2
1.0 1.4 3.1 4.3 1.9 2.0 2.8 1.3 0.6 0.8 1.3 0.9 1.6 3.8 2.1 2.4 2.0 1.6 2.0 2.2 2.3 1.8
0.0 0.7 1.5 0.8 1.7 2.7 2.9 1.2 1.2 1.8 2.0 2.7 2.7 3.4 4.6 5.1 5.4 3.4 5.1 5.1 3.5 4.2
0.1 0.0 0.3 0.2 0.3 0.8 2.7 1.2 1.3 0.9 0.8 1.5 2.6 3.5 4.3 5.8 6.2 5.8 3.0 4.1 5.0 4.1
0.1 0.0 0.0 0.0 0.1 0.1 0.1 0.5 2.2 2.2 1.7 0.7 0.9 2.0 2.1 2.7 4.7 6.2 5.9 5.1 4.1 4.3
0.0 0.1 0.6 1.4 1.2 1.1 0.9 0.5 0.0 0.2 0.7 0.0 0.8 0.7 0.4 0.6 0.6 1.8 4.3 4.7 4.5 4.1
1.0 0.9 3.1 2.5 2.0 1.5 0.7 0.2 0.0 0.0 0.0 0.0 0.0 0.2 0.2 0.1 0.2 0.8 0.6 1.3 3.0 4.0
4.3 4.4 3.7 2.8 1.9 0.9 0.4 0.1 0.0 0.1 0.0 0.0 0.0 0.0 0.4 0.2 1.2 2.1 0.7 0.2 1.3 4.3
5.3 4.3 3.2 2.0 1.1 0.6 0.2 0.0 0.2 0.2 0.0 0.1 0.1 0.1 0.7 0.6 1.6 2.8 3.7 2.3 2.5 2.1

GFSNIL_prec_snow_192.txt.gz
Snowfall_Accumulation
0.0 0.0 0.0 0.0 0.0 0.0 0.0 0.0 0.0 0.0 0.0 0.0 0.0 0.0 0.0 0.0 0.0 0.0 0.0 0.0 0.0 2.1
0.0 0.0 0.0 0.0 0.0 0.0 0.0 0.0 0.0 0.0 0.0 0.0 0.0 0.0 0.0 0.0 0.0 0.0 0.0 0.0 0.0 0.0
0.0 0.0 0.0 0.0 0.0 0.0 0.0 0.0 0.0 0.0 0.0 0.0 0.0 0.0 0.0 0.0 0.0 0.0 0.0 0.0 0.0 0.1
0.0 0.0 0.0 0.0 0.0 0.0 0.0 0.0 0.0 0.1 0.1 0.0 0.0 0.0 0.0 0.0 0.0 0.0 0.0 0.0 0.0 0.1
0.0 0.0 0.6 0.0 0.0 0.0 0.1 0.0 0.1 0.1 0.1 0.2 0.6 0.3 0.4 0.2 0.1 0.2 0.1 0.2 0.1 0.1
0.0 2.4 0.7 1.1 1.4 0.9 1.2 0.3 0.6 0.7 1.2 1.1 0.5 1.1 1.5 1.1 0.1 0.6 0.9 0.8 0.7 0.2
1.0 1.4 3.1 4.3 1.9 2.0 2.8 1.3 0.6 0.8 1.3 0.9 1.6 3.8 2.1 2.4 2.0 1.6 2.0 2.2 2.3 1.8
0.0 0.7 1.5 0.8 1.7 2.7 2.9 1.2 1.2 1.8 2.0 2.7 2.7 3.4 4.6 5.1 5.4 3.4 5.1 5.1 3.5 4.2
0.1 0.0 0.3 0.2 0.3 0.8 2.7 1.2 1.3 0.9 0.9 1.5 2.6 3.5 4.3 5.8 6.2 5.8 3.0 4.1 5.0 4.1
0.1 0.0 0.0 0.0 0.1 0.1 0.1 0.9 2.5 2.4 1.8 0.7 0.9 2.0 2.1 2.7 4.7 6.2 5.9 5.1 4.1 4.3
0.0 0.1 0.6 1.4 2.5 2.4 2.0 1.5 1.0 0.9 1.3 0.4 0.9 0.8 0.5 0.6 0.6 1.8 4.3 4.7 4.5 4.1
1.0 0.9 3.1 3.9 3.9 3.6 2.9 2.2 1.6 1.1 0.6 0.2 0.1 0.3 0.3 0.1 0.2 0.8 0.6 1.3 3.0 4.0
4.3 4.4 5.2 4.9 4.4 3.5 2.7 1.8 1.1 0.9 0.4 0.2 0.1 0.1 0.4 0.2 1.2 2.1 0.7 0.2 1.3 4.3
7.5 7.1 6.2 5.0 3.7 2.6 1.7 1.0 0.8 0.6 0.3 0.1 0.1 0.1 0.7 0.6 1.6 2.8 3.7 2.3 2.5 2.1

GFSNIL_prec_snow_195.txt.gz
Snowfall_Accumulation
0.0 0.0 0.0 0.0 0.0 0.0 0.0 0.0 0.0 0.0 0.0 0.0 0.0 0.0 0.0 0.0 0.0 0.0 0.0 0.0 0.0 2.1
0.0 0.0 0.0 0.0 0.0 0.0 0.0 0.0 0.0 0.0 0.0 0.0 0.0 0.0 0.0 0.0 0.0 0.0 0.0 0.0 0.0 0.0
0.0 0.0 0.0 0.0 0.0 0.0 0.0 0.0 0.0 0.0 0.0 0.0 0.0 0.0 0.0 0.0 0.0 0.0 0.0 0.0 0.0 0.1
0.0 0.0 0.0 0.0 0.0 0.0 0.0 0.0 0.0 0.1 0.1 0.0 0.0 0.0 0.0 0.0 0.0 0.0 0.0 0.0 0.0 0.1
0.0 0.0 0.6 0.0 0.0 0.0 0.1 0.0 0.1 0.1 0.1 0.2 0.6 0.3 0.4 0.2 0.1 0.2 0.1 0.2 0.1 0.1
0.0 2.4 0.7 1.1 1.4 0.9 1.2 0.3 0.6 0.7 1.2 1.1 0.5 1.1 1.5 1.1 0.1 0.6 0.9 0.8 0.7 0.2
1.0 1.4 3.1 4.3 1.9 2.0 2.8 1.3 0.6 0.8 1.3 0.9 1.6 3.8 2.1 2.4 2.1 1.6 2.0 2.2 2.3 1.8
0.0 0.7 1.5 0.8 1.7 2.7 2.9 1.2 1.2 1.8 2.0 2.7 2.7 3.5 4.7 5.2 5.5 3.4 5.1 5.1 3.5 4.2
0.1 0.0 0.3 0.2 0.3 0.8 2.7 1.2 1.3 0.9 0.9 1.5 2.7 3.5 4.4 5.9 6.3 5.8 3.0 4.1 5.0 4.1
0.1 0.0 0.0 0.0 0.1 0.1 0.1 0.9 2.5 2.4 1.8 0.7 0.9 2.3 2.4 2.9 4.7 6.2 5.9 5.1 4.1 4.3
0.0 0.1 0.6 1.4 2.5 2.4 2.0 1.5 1.0 2.3 2.7 1.8 2.0 1.7 1.0 0.7 0.6 1.9 4.3 4.7 4.5 4.1
1.0 0.9 3.1 3.9 3.9 3.6 2.9 3.8 3.5 3.0 2.5 1.7 1.1 1.1 0.6 0.1 0.2 0.8 0.6 1.3 3.0 4.0
4.3 4.4 5.2 4.9 4.4 4.7 4.4 3.9 3.1 2.6 1.7 1.1 0.9 0.9 0.8 0.3 1.3 2.1 0.7 0.2 1.3 4.3
7.5 7.1 6.2 6.6 5.9 5.2 4.3 3.1 2.4 1.8 1.3 0.8 0.6 0.7 1.0 0.6 1.6 2.8 3.7 2.3 2.5 2.1

GFSNIL_prec_snow_198.txt.gz
Snowfall_Accumulation
0.0 0.0 0.0 0.0 0.0 0.0 0.0 0.0 0.0 0.0 0.0 0.0 0.0 0.0 0.0 0.0 0.0 0.0 0.0 0.0 0.0 2.1
0.0 0.0 0.0 0.0 0.0 0.0 0.0 0.0 0.0 0.0 0.0 0.0 0.0 0.0 0.0 0.0 0.0 0.0 0.0 0.0 0.0 0.0
0.0 0.0 0.0 0.0 0.0 0.0 0.0 0.0 0.0 0.0 0.0 0.0 0.0 0.0 0.0 0.0 0.0 0.0 0.0 0.0 0.0 0.1
0.0 0.0 0.0 0.0 0.0 0.0 0.0 0.0 0.0 0.1 0.1 0.0 0.0 0.0 0.0 0.0 0.0 0.0 0.0 0.0 0.0 0.1
0.0 0.0 0.6 0.0 0.0 0.0 0.1 0.0 0.1 0.1 0.1 0.2 0.6 0.3 0.4 0.2 0.1 0.2 0.1 0.2 0.1 0.1
0.0 2.4 0.7 1.1 1.4 0.9 1.2 0.3 0.6 0.7 1.2 1.1 0.5 1.1 1.5 1.1 0.1 0.6 0.9 0.8 0.7 0.3
1.0 1.4 3.1 4.3 1.9 2.0 2.8 1.3 0.6 0.8 1.3 0.9 1.6 3.8 2.1 2.4 2.1 1.6 2.0 2.2 2.3 1.8
0.0 0.7 1.5 0.8 1.7 2.7 2.9 1.2 1.2 1.8 2.0 2.7 2.7 3.5 4.7 5.2 5.5 3.4 5.2 5.1 3.5 4.4
0.1 0.0 0.3 0.2 0.3 0.8 2.7 1.2 1.3 0.9 0.9 1.5 2.7 3.5 4.4 5.9 6.3 5.8 3.3 4.1 5.2 4.1
0.1 0.0 0.0 0.0 0.1 0.1 0.1 0.9 2.5 2.4 1.8 0.7 0.9 2.3 2.9 3.3 5.1 6.6 6.3 5.3 4.2 4.3
0.0 0.1 0.6 1.4 2.5 2.4 2.0 1.5 1.0 2.5 3.2 2.9 3.0 2.8 2.0 1.6 1.2 2.2 4.3 4.7 4.5 4.1
1.0 0.9 3.1 3.9 3.9 3.6 2.9 3.8 3.5 4.2 4.2 3.2 2.6 2.4 1.6 0.7 0.5 0.8 0.6 1.3 3.0 4.0
4.3 4.4 5.2 4.9 4.4 4.7 4.4 4.9 4.6 4.3 3.4 2.0 2.0 2.0 1.5 0.6 1.4 2.1 0.7 0.2 1.3 4.3
7.5 7.1 6.2 6.6 5.9 5.2 5.8 5.1 4.4 3.5 2.6 1.7 1.6 1.7 1.6 0.9 1.7 2.8 3.7 2.3 2.5 2.1

GFSNIL_prec_snow_201.txt.gz
Snowfall_Accumulation
0.0 0.0 0.0 0.0 0.0 0.0 0.0 0.0 0.0 0.0 0.0 0.0 0.0 0.0 0.0 0.0 0.0 0.0 0.0 0.0 0.0 2.1
0.0 0.0 0.0 0.0 0.0 0.0 0.0 0.0 0.0 0.0 0.0 0.0 0.0 0.0 0.0 0.0 0.0 0.0 0.0 0.0 0.0 0.0
0.0 0.0 0.0 0.0 0.0 0.0 0.0 0.0 0.0 0.0 0.0 0.0 0.0 0.0 0.0 0.0 0.0 0.0 0.0 0.0 0.0 0.1
0.0 0.0 0.0 0.0 0.0 0.0 0.0 0.0 0.0 0.1 0.1 0.0 0.0 0.0 0.0 0.0 0.0 0.0 0.0 0.0 0.0 0.1
0.0 0.0 0.6 0.0 0.0 0.0 0.1 0.0 0.1 0.1 0.1 0.2 0.6 0.3 0.4 0.2 0.1 0.2 0.1 0.2 0.1 0.1
0.0 2.4 0.7 1.1 1.4 0.9 1.2 0.3 0.6 0.7 1.2 1.1 0.5 1.1 1.5 1.1 0.1 0.6 0.9 0.8 0.7 0.3
1.0 1.4 3.1 4.3 1.9 2.0 2.8 1.3 0.6 0.8 1.3 0.9 1.6 3.8 2.1 2.4 2.1 1.6 2.0 2.2 2.3 1.8
0.0 0.7 1.5 0.8 1.7 2.7 2.9 1.2 1.2 1.8 2.0 2.7 2.7 3.5 4.7 5.2 5.5 3.4 5.2 5.1 3.5 4.4
0.1 0.0 0.3 0.2 0.3 0.8 2.7 1.2 1.3 0.9 0.9 1.5 2.7 3.5 4.4 5.9 6.3 5.8 3.3 4.1 5.2 4.1
0.1 0.0 0.0 0.0 0.1 0.1 0.1 0.9 2.5 2.4 1.8 0.7 0.9 2.3 2.9 3.3 5.1 6.6 6.4 5.3 4.2 4.3
0.0 0.1 0.6 1.4 2.5 2.4 2.0 1.5 1.0 2.5 3.2 3.1 3.2 2.8 2.0 2.2 1.7 2.9 4.9 5.0 4.6 4.1
1.0 0.9 3.1 3.9 3.9 3.6 2.9 3.8 3.5 4.2 4.6 3.7 3.4 3.5 2.5 1.4 1.2 1.5 1.1 1.5 3.1 4.0
4.3 4.4 5.2 4.9 4.4 4.7 4.4 4.9 4.6 5.2 4.1 2.8 3.0 2.8 2.1 1.2 1.9 2.6 1.1 0.4 1.4 4.4
7.5 7.1 6.2 6.6 5.9 5.2 5.8 5.1 5.3 4.5 3.4 2.6 2.5 2.6 2.4 1.4 2.1 3.1 3.9 2.5 2.7 2.2

GFSNIL_prec_snow_204.txt.gz
Snowfall_Accumulation
0.0 0.0 0.0 0.0 0.0 0.0 0.0 0.0 0.0 0.0 0.0 0.0 0.0 0.0 0.0 0.0 0.0 0.0 0.0 0.0 0.0 2.1
0.0 0.0 0.0 0.0 0.0 0.0 0.0 0.0 0.0 0.0 0.0 0.0 0.0 0.0 0.0 0.0 0.0 0.0 0.0 0.0 0.0 0.0
0.0 0.0 0.0 0.0 0.0 0.0 0.0 0.0 0.0 0.0 0.0 0.0 0.0 0.0 0.0 0.0 0.0 0.0 0.0 0.0 0.0 0.1
0.0 0.0 0.0 0.0 0.0 0.0 0.0 0.0 0.0 0.1 0.1 0.0 0.0 0.0 0.0 0.0 0.0 0.0 0.0 0.0 0.0 0.1
0.0 0.0 0.6 0.0 0.0 0.0 0.1 0.0 0.1 0.1 0.1 0.2 0.6 0.3 0.4 0.2 0.1 0.2 0.1 0.2 0.1 0.1
0.0 2.4 0.7 1.1 1.4 0.9 1.2 0.3 0.6 0.7 1.2 1.1 0.5 1.1 1.5 1.1 0.1 0.6 0.9 0.8 0.7 0.3
1.0 1.4 3.1 4.3 1.9 2.0 2.8 1.3 0.6 0.8 1.3 0.9 1.6 3.8 2.1 2.4 2.1 1.6 2.0 2.2 2.3 1.8
0.0 0.7 1.5 0.8 1.7 2.7 2.9 1.2 1.2 1.8 2.0 2.7 2.7 3.5 4.7 5.2 5.5 3.4 5.2 5.2 3.6 4.4
0.1 0.0 0.3 0.2 0.3 0.8 2.7 1.2 1.3 0.9 0.9 1.5 2.7 3.5 4.4 5.9 6.3 5.8 3.3 4.1 5.2 4.1
0.1 0.0 0.0 0.0 0.1 0.1 0.1 0.9 2.5 2.4 1.8 0.7 0.9 2.3 2.9 3.3 5.1 6.6 6.4 5.3 4.2 4.3
0.0 0.1 0.6 1.4 2.5 2.4 2.0 1.5 1.0 2.5 3.2 3.1 3.2 2.8 2.0 2.3 1.8 2.9 4.9 5.0 4.6 4.1
1.0 0.9 3.1 3.9 3.9 3.6 2.9 3.8 3.5 4.2 4.6 3.7 3.4 3.5 2.9 1.6 1.2 1.5 1.1 1.5 3.4 4.2
4.3 4.4 5.2 4.9 4.4 4.7 4.4 4.9 4.6 5.2 4.1 2.8 3.6 3.5 2.4 1.4 1.9 2.6 1.1 0.7 1.7 4.5
7.5 7.1 6.2 6.6 5.9 5.2 5.8 5.1 5.3 4.5 3.4 3.2 3.3 3.2 2.7 1.7 2.4 3.3 4.1 2.7 3.0 2.4

GFSNIL_prec_snow_207.txt.gz
Snowfall_Accumulation
0.0 0.0 0.0 0.0 0.0 0.0 0.0 0.0 0.0 0.0 0.0 0.0 0.0 0.0 0.0 0.0 0.0 0.0 0.0 0.0 0.0 2.1
0.0 0.0 0.0 0.0 0.0 0.0 0.0 0.0 0.0 0.0 0.0 0.0 0.0 0.0 0.0 0.0 0.0 0.0 0.0 0.0 0.0 0.0
0.0 0.0 0.0 0.0 0.0 0.0 0.0 0.0 0.0 0.0 0.0 0.0 0.0 0.0 0.0 0.0 0.0 0.0 0.0 0.0 0.0 0.1
0.0 0.0 0.0 0.0 0.0 0.0 0.0 0.0 0.0 0.1 0.1 0.0 0.0 0.0 0.0 0.0 0.0 0.0 0.0 0.0 0.0 0.1
0.0 0.0 0.6 0.0 0.0 0.0 0.1 0.0 0.1 0.1 0.1 0.2 0.6 0.3 0.4 0.2 0.1 0.2 0.1 0.2 0.1 0.1
0.0 2.4 0.7 1.1 1.4 0.9 1.2 0.3 0.6 0.7 1.2 1.1 0.5 1.1 1.5 1.1 0.1 0.6 0.9 0.8 0.7 0.3
1.0 1.4 3.1 4.3 1.9 2.0 2.8 1.3 0.6 0.8 1.3 0.9 1.6 3.8 2.1 2.4 2.1 1.6 2.0 2.2 2.3 1.8
0.0 0.7 1.5 0.8 1.7 2.7 2.9 1.2 1.2 1.8 2.0 2.7 2.7 3.5 4.7 5.2 5.5 3.4 5.2 5.2 3.6 4.4
0.1 0.0 0.3 0.2 0.3 0.8 2.7 1.2 1.3 0.9 0.9 1.5 2.7 3.5 4.4 5.9 6.3 5.8 3.3 4.1 5.4 4.2
0.1 0.0 0.0 0.0 0.1 0.1 0.1 0.9 2.5 2.4 1.8 0.7 0.9 2.3 2.9 3.3 5.1 6.6 6.4 5.3 4.4 4.4
0.0 0.1 0.6 1.4 2.5 2.4 2.0 1.5 1.0 2.5 3.2 3.1 3.2 2.8 2.0 2.3 1.8 2.9 4.9 5.0 4.6 4.2
1.0 0.9 3.1 3.9 3.9 3.6 2.9 3.8 3.5 4.2 4.6 3.7 3.4 3.5 2.9 1.6 1.6 1.7 1.2 1.6 3.4 4.2
4.3 4.4 5.2 4.9 4.4 4.7 4.4 4.9 4.6 5.2 4.1 2.8 3.6 3.5 2.4 1.8 2.2 2.8 1.2 0.7 1.7 4.5
7.5 7.1 6.2 6.6 5.9 5.2 5.8 5.1 5.3 4.5 3.4 3.2 3.3 3.6 2.7 2.0 2.6 3.3 4.1 2.7 3.0 2.4

GFSNIL_prec_snow_210.txt.gz
Snowfall_Accumulation
0.0 0.0 0.0 0.0 0.0 0.0 0.0 0.0 0.0 0.0 0.0 0.0 0.0 0.0 0.0 0.0 0.0 0.0 0.0 0.0 0.0 2.1
0.0 0.0 0.0 0.0 0.0 0.0 0.0 0.0 0.0 0.0 0.0 0.0 0.0 0.0 0.0 0.0 0.0 0.0 0.0 0.0 0.0 0.0
0.0 0.0 0.0 0.0 0.0 0.0 0.0 0.0 0.0 0.0 0.0 0.0 0.0 0.0 0.0 0.0 0.0 0.0 0.0 0.0 0.0 0.1
0.0 0.0 0.0 0.0 0.0 0.0 0.0 0.0 0.0 0.1 0.1 0.0 0.0 0.0 0.0 0.0 0.0 0.0 0.0 0.0 0.0 0.1
0.0 0.0 0.6 0.0 0.0 0.0 0.1 0.0 0.1 0.1 0.1 0.2 0.6 0.3 0.4 0.2 0.1 0.2 0.1 0.2 0.1 0.1
0.0 2.4 0.7 1.1 1.4 0.9 1.2 0.3 0.6 0.7 1.2 1.1 0.5 1.1 1.5 1.1 0.1 0.6 0.9 0.8 0.7 0.3
1.0 1.4 3.1 4.3 1.9 2.0 2.8 1.3 0.6 0.8 1.3 0.9 1.6 3.8 2.1 2.4 2.1 1.6 2.0 2.2 2.3 1.8
0.0 0.7 1.5 0.8 1.7 2.7 2.9 1.2 1.2 1.8 2.0 2.7 2.7 3.5 4.7 5.2 5.5 3.4 5.2 5.2 3.6 4.4
0.1 0.0 0.3 0.2 0.3 0.8 2.7 1.2 1.3 0.9 0.9 1.5 2.7 3.5 4.4 5.9 6.3 5.8 3.3 4.1 5.4 4.2
0.1 0.0 0.0 0.0 0.1 0.1 0.1 0.9 2.5 2.4 1.8 0.7 0.9 2.3 2.9 3.3 5.1 6.6 6.4 5.3 4.4 4.7
0.0 0.1 0.6 1.4 2.5 2.4 2.0 1.5 1.0 2.5 3.2 3.1 3.2 2.8 2.0 2.3 1.8 2.9 4.9 5.0 4.6 4.2
1.0 0.9 3.1 3.9 3.9 3.6 2.9 3.8 3.5 4.2 4.6 3.7 3.4 3.5 2.9 1.6 1.6 1.7 1.5 1.8 3.4 4.2
4.3 4.4 5.2 4.9 4.4 4.7 4.4 4.9 4.6 5.2 4.1 2.8 3.6 3.5 2.4 1.8 2.2 3.0 1.4 0.9 1.8 4.5
7.5 7.1 6.2 6.6 5.9 5.2 5.8 5.1 5.3 4.5 3.4 3.2 3.3 3.6 2.7 2.0 2.8 3.5 4.2 2.7 3.1 2.5

GFSNIL_prec_snow_216.txt.gz
Snowfall_Accumulation
0.0 0.0 0.0 0.0 0.0 0.0 0.0 0.0 0.0 0.0 0.0 0.0 0.0 0.0 0.0 0.0 0.0 0.0 0.0 0.0 0.0 2.1
0.0 0.0 0.0 0.0 0.0 0.0 0.0 0.0 0.0 0.0 0.0 0.0 0.0 0.0 0.0 0.0 0.0 0.0 0.0 0.0 0.0 0.0
0.0 0.0 0.0 0.0 0.0 0.0 0.0 0.0 0.0 0.0 0.0 0.0 0.0 0.0 0.0 0.0 0.0 0.0 0.0 0.0 0.0 0.1
0.0 0.0 0.0 0.0 0.0 0.0 0.0 0.0 0.0 0.1 0.1 0.0 0.0 0.0 0.0 0.0 0.0 0.0 0.0 0.0 0.0 0.1
0.0 0.0 0.6 0.0 0.0 0.0 0.1 0.0 0.1 0.1 0.1 0.2 0.6 0.3 0.4 0.2 0.1 0.2 0.1 0.2 0.1 0.1
0.0 2.4 0.7 1.1 1.4 0.9 1.2 0.3 0.6 0.7 1.2 1.1 0.5 1.1 1.5 1.1 0.1 0.6 0.9 0.8 0.7 0.3
1.0 1.4 3.1 4.3 1.9 2.0 2.8 1.3 0.6 0.8 1.3 0.9 1.6 3.8 2.1 2.4 2.1 1.6 2.0 2.2 2.3 1.8
0.0 0.7 1.5 0.8 1.7 2.7 2.9 1.2 1.2 1.8 2.0 2.7 2.7 3.5 4.7 5.2 5.5 3.4 5.2 5.2 3.6 4.4
0.1 0.0 0.3 0.2 0.3 0.8 2.7 1.2 1.3 0.9 0.9 1.5 2.7 3.5 4.4 5.9 6.3 5.8 3.3 4.1 5.4 4.2
0.1 0.0 0.0 0.0 0.1 0.1 0.1 0.9 2.5 2.4 1.8 0.7 0.9 2.3 2.9 3.3 5.1 6.6 6.4 5.3 4.4 4.7
0.0 0.1 0.6 1.4 2.5 2.4 2.0 1.5 1.0 2.5 3.2 3.1 3.2 2.8 2.0 2.3 1.8 2.9 4.9 5.0 4.6 4.2
1.0 0.9 3.1 3.9 3.9 3.6 2.9 3.8 3.5 4.2 4.6 3.7 3.4 3.5 2.9 1.6 1.6 1.7 1.5 1.8 3.4 4.2
4.3 4.4 5.2 4.9 4.4 4.7 4.4 4.9 4.6 5.2 4.1 2.8 3.6 3.5 2.4 1.8 2.2 3.0 1.4 0.9 2.0 4.6
7.5 7.1 6.2 6.6 5.9 5.2 5.8 5.1 5.3 4.5 3.4 3.2 3.3 3.6 2.7 2.0 2.8 3.5 6.7 4.3 3.9 3.1